Location: Winthrop
(48.4780°N, 120.1850°W)
Time: 16:57:18
(UTC-07:00)

Explorer 7 - Pass Details

Date: 04 February 2023
Orbit: 478 x 657 km, 50.3° (Epoch: 30 March)

Event Time Altitude Azimuth Distance (km) Brightness Sun altitude
Rises 12:54:58 0° 254° (WSW) 2,687 10.7 24.8°
Reaches altitude 10° 12:57:08 10° 255° (WSW) 1,827 9.9 24.7°
Maximum altitude 13:01:19 86° 342° (NNW) 584 7.3 24.6°
Drops below altitude 10° 13:05:48 10° 74° (ENE) 1,950 9.4 24.4°
Sets 13:08:10 0° 75° (ENE) 2,886 10.2 24.3°
